1st Responders/1st Detectors/Storm Spotters Weather Summary for Lewis County, KY

Forecast Maps


Reg. NEXRAD Animation


National Fire Danger: Day 1 & 2 Map

Current NWS Watch/Warnings

SPC Convective Day 1 Outlook


Day 2 Outlook

(Click images to enlarge|Page will refresh every 5 minutes)
UK Ag. Weather Center Desktop Severe Weather Service[HERE]
Lewis County, KY Hazardous Weather Outlook Webcast
(9 AM to 9 PM Mon-Fri)
[Fast]
[Dial-up]


UKAWC 1st Detectors/1st Responders Precision Weather Forecast For LEWIS County, Kentucky
(based on the NWS County Digital Forecast)

ISSUED AT 16:00 UTC ON TUESDAY NOV 21 2017
DAY TUESDAY
EDT 3HR 1P 2P 3P 4P 5P 6P 7P
MAX/MIN -- -- -- -- -- -- 56°
TEMP 52° 54° 56° 56° 56° 52° 49°
SKY COVER 25% 25% 27% 30% 32% 34% 40%
Clouds
DEW PT 34° 36° 36° 36° 36° 36° 36°
RH 52% 48% 46% 45% 48% 51% 60%
POP 12HR -- -- -- -- -- -- --
RAIN/SNOW (liq.equ) -- 0.00in -- -- -- -- --
SNOWFALL -- 0in -- -- -- -- --
WIND SPEED(MPH) 14 15 14 13 10 9 7
WIND Gust(MPH) 23 23 21 17 15 15 14
WIND DIR SW SW SW SW SW SW SW
DEW -- -- -- -- -- -- --
HeatIndex 52 54 56 56 56 52 49
WIND CHILL -- -- -- -- -- -- --
SPRAY COND
DRY COND
LIVESTOCK COLDSTRESS



DAY WEDNESDAY THURSDAY FRIDAY SATURDAY SUNDAY MONDAY
EDT 6HR 8P 9P 10P 11P MIDN 1A 2A 3A 4A 5A 6A 7A 8A 9A 10A 11A NOON 1P 2P 3P 4P 5P 6P 7P 8P 9P 10P 11P MIDN 2A 5A 8A 11A 2P 5P 8P 2A 8A 2P 8P 2A 8A 2P 8P 2A 8A 2P 8P 2A 8A 2P 8P
MAX/MIN -- -- -- -- -- -- -- -- -- -- -- -- 31° -- -- -- -- -- -- -- -- -- -- 41° -- -- -- -- -- -- -- 25° -- -- 45° -- -- 29° 54° -- -- 40° 54° -- -- 31° 40° -- -- 25° 40° --
TEMP 47° 45° 43° 40° 40° 38° 38° 36° 34° 34° 32° 31° 31° 31° 34° 36° 38° 40° 40° 41° 41° 40° 38° 36° 34° 34° 31° 31° 29° 29° 25° 25° 32° 43° 45° 38° 32° 29° 52° 47° 43° 41° 52° 45° 36° 32° 40° 34° 29° 25° 40° 36°
SKY COVER 43% 49% 61% 68% 67% 64% 63% 61% 56% 54% 50% 43% 40% 36% 28% 24% 23% 21% 20% 19% 18% 17% 15% 11% 9% 8% 8% 8% 10% 16% 48% 41% 34% 27% 31% 18% 11% 5% 3% 8% 47% 66% 39% 41% 38% 48% 48% 55% 32% 21% 17% 23%
Clouds
DEW PT 34° 34° 34° 34° 34° 34° 34° 34° 32° 31° 29° 29° 27° 27° 25° 25° 25° 23° 23° 23° 23° 23° 22° 22° 22° 22° 22° 22° 22° 22° 20° 20° 23° 23° 25° 25° 25° 23° 29° 31° 31° 34° 38° 34° 29° 27° 25° 23° 22° 20° 22° 23°
RH 62% 67% 73% 79% 81% 89% 88% 92% 92% 88% 88% 88% 81% 81% 72% 64% 58% 52% 50% 48% 48% 50% 52% 58% 61% 63% 68% 72% 71% 75% 81% 84% 69% 45% 45% 56% 71% 80% 40% 53% 65% 72% 58% 64% 75% 77% 54% 63% 74% 77% 48% 61%
POP 12HR 7% -- -- -- -- -- -- -- -- -- -- -- 10% -- -- -- -- -- -- -- -- -- -- -- 6% -- -- -- -- -- -- 0% -- -- -- 0% -- 0% -- 5% -- 10% -- 7% -- 4% -- 4% -- 1% -- 1%
RAIN/SNOW (liq.equ) 0.00in -- -- -- -- -- 0.00in -- -- -- -- -- 0.00in -- -- -- -- -- 0.00in -- -- -- -- -- 0.00in -- -- -- -- 0.00in -- 0.00in -- 0.00in -- 0.00in -- -- -- -- -- -- -- -- -- -- -- -- -- -- -- --
SNOWFALL 0in -- -- -- -- -- 0in -- -- -- -- -- 0in -- -- -- -- -- 0in -- -- -- -- -- 0in -- -- -- -- 0in -- 0in -- 0in -- 0in -- -- -- -- -- -- -- -- -- -- -- -- -- -- -- --
WIND SPEED(MPH) 7 7 7 7 7 7 7 7 7 7 7 7 6 6 7 7 7 6 6 6 6 6 6 5 5 2 2 1 1 0 0 0 1 5 2 2 2 2 5 6 9 8 9 8 7 7 8 7 6 5 6 5
WIND DIR SW W W W W NW NW NW NW NW N N N N N N N N N N N N N N N N N NE NE NE NE E SW W SW W SW SW SW S SW SW W W W NW NW NW NW W W SW
HeatIndex 47 41 38 35 35 32 32 30 28 27 26 25 26 26 27 30 32 35 37 38 38 37 34 32 31 31 28 31 29 29 25 25 32 41 43 36 29 25 52 47 37 36 52 45 31 25 34 29 23 20 35 32
WIND CHILL -- 41° 39° 35° 35° 33° 33° 30° 28° 28° 26° 25° 25° 25° 28° 30° 33° 36° 36° 37° 37° 36° 34° 32° 30° -- -- -- -- -- -- -- -- 40° -- -- -- -- -- -- 38° 36° -- 41° 30° 26° 35° 28° 23° 19° 36° 32°
SPRAY COND
DRY COND
LIVESTOCK COLDSTRESS

Click on individual weather variable above in left-hand column (ie., TEMP, RH, QPF 12HR) to view state forecast maps






NWS 48 Hr. Forecast Maps,

Regional Hourly Observations For LEWIS County, Kentucky
Issued at 1200 PM EST TUE NOV 21 2017
NORTHEAST KENTUCKY
  
CITY           SKY/WX    TMP DP  RH WIND       PRES   REMARKS
LEXINGTON      SUNNY     54  32  43 SW22G32   30.01F                  
COVINGTON      MOSUNNY   51  31  46 SW17G30   29.94F                  
FRANKFORT      SUNNY     54  29  38 S20G30    29.98F                  


Current NOWCAST not available:
Nowcasts are not issued routinely during fair weather. Only when
precipitation or other significant weather is occuring in this county will these
forecasts be issued. Currently, there is no short term forecast in effect.


Fire Weather Forecast For LEWIS County, KY
Provided by the National Weather Service:

Issued at: Tue Nov 21 12:05:01 EST 2017

CLOUD COVER                    MClear        PCldy       MClear
PRECIP TYPE                      None         None         None
CHANCE PRECIP (%)                   0            0            0
TEMP (24H TREND)              56 (+8)      30 (+3)           41
RH % (24H TREND)              44 (+3)      96 (+7)           48
20FTWND-AM(MPH)             SW  9 G20                      N  5
20FTWND-PM(MPH)             SW 10 G21        SW  6      Lgt/Var
PRECIP AMOUNT                    0.00         0.00         0.00
PRECIP DURATION                                                
MIXING HGT(FT-AGL)               3860                      3560
TRANSPORT WND (MPH)             SW 26                      N  8
LAL                                 1            1            1
HAINES INDEX                        4            4            4

REMARKS...None.

.FORECAST FOR DAYS 3 THROUGH 7...
.WEDNESDAY NIGHT...Mostly clear. Lows in the mid 20s. Light winds. 
.THURSDAY...Mostly sunny. Highs in the mid 40s. Southwest winds around
5 mph. 
.FRIDAY...Mostly clear. Lows in the upper 20s. Highs in the lower 50s.
Southwest winds around 5 mph. 
.SATURDAY...Partly cloudy. Lows around 40. Highs in the mid 50s. West
winds 5 to 10 mph. 
.SUNDAY...Partly cloudy. Colder. Lows in the lower 30s. Highs in the upper
30s. Northwest winds 5 to 10 mph. 
.MONDAY...Partly cloudy. Lows in the mid 20s. Highs in the lower 40s. West
winds around 5 mph. 

SPC's Fire Weather Web Tool (Excellent!), SPC's Fire Weather Outlooks, NWS Fire Weather WEB, Fire Danger Class Map,
Keetch-Byram Drought Index, ROMAN Web, Haines Index ,
WFAS's 10-hr Dead Fuel Moist., WFAS's 100-hr Dead Fuel Moist., Probablity of Ignition, Visual blackness Map, Palmer Drought Index, HPC's Rainfall Forecast Maps


Hazardous Weather Outlook For LEWIS County, Kentucky
300 AM EST Tue Nov 21 2017

 DAY ONE  Today and Tonight.

No hazardous weather is expected at this time.

 DAYS TWO THROUGH SEVEN  Wednesday through Monday.

No hazardous weather is expected at this time.

 SPOTTER INFORMATION STATEMENT  

Spotter activation is not expected at this time.

Latest LEWIS County, Kentucky Watches, Warnings and Advisories.
Additional Drought Info.: UKAWC Drought Page, Kentucky Drought Watch


7-Day Forecast For LEWIS County, KY

THIS AFTERNOON
Mostly sunny. Highs in the mid 50s. Southwest winds 10 to 15 mph with gusts up to 25 mph.

TONIGHT
Partly cloudy. Lows in the lower 30s. Southwest winds 5 to 10 mph, becoming northwest after midnight.

WEDNESDAY
Mostly sunny. Colder with highs around 40. North winds 5 to 10 mph.

WEDNESDAY NIGHT
Mostly clear. Lows in the mid 20s. North winds around 5 mph in the evening, becoming light and variable.

THANKSGIVING DAY
Partly cloudy. Highs in the mid 40s. South winds around 5 mph, becoming west around 5 mph in the afternoon.

THURSDAY NIGHT
Mostly clear. Lows in the upper 20s.

FRIDAY
Sunny. Highs in the lower 50s.

FRIDAY NIGHT
Mostly clear in the evening, then becoming partly cloudy. Lows around 40.

SATURDAY
Partly cloudy. Highs in the mid 50s.

SATURDAY NIGHT
Partly cloudy. Lows in the lower 30s.

SUNDAY
Partly cloudy. Colder with highs in the upper 30s.

SUNDAY NIGHT
Partly cloudy in the evening, then clearing. Lows in the mid 20s.

MONDAY
Mostly sunny. Highs in the lower 40s.

Ag Weather Center, Department of Biosystems & Agricultural Engineering, University of Kentucky